Погода в Барабе

Россия / Свердловская область     56°44′59″N   61°45′51″E
темп.,
°C
ветер,
м/с
пор.,
м/с
влажн.,
%
обл.,
%
осадки,
мм/ч
давл.,
гПа
погр.,
м
25 января, пн
пн2523:00−18ю4797100 1.4 1029277
02:00−17ю2497100 0.4 1028128
05:00−14юз1196100 0.8 102821
08:00−16всв1194100 0.0 102920
11:00−14ююв1294100 0.0 103052
14:00−9ю359599 0.3 1029151
17:00−3ююз469898 0.5 1029205
20:00−2зюз5148995 0.1 1028511
26 января, вт
вт2623:00−3зюз5138895 0.1 1028442
02:00−3з5148895 0.0 1028524
05:00−2з5148896 0.0 1028578
08:00−3з5138991 0.0 1028500
11:00−4з5138856 0.0 1029475
14:00−3з5128828 0.0 1028575
17:00−4зюз4109065 0.0 1027352
20:00−4зюз41189100 0.0 1027341
27 января, ср
ср2723:00−3з51087100 0.0 1027673
02:00−6зюз51289100 0.0 1027408
05:00−8зюз489297 0.0 1027153
08:00−5з4108999 0.0 1028541
11:00−7зюз41091100 0.0 1028424
14:00−4зюз4108980 0.0 1029622
17:00−6зюз369172 0.0 102893
20:00−6юз4119126 0.0 1028224
28 января, чт
чт2823:00−5юз5129060 0.0 1026344
02:00−4юз61584100 0.0 1025462
05:00−3юз51481100 0.0 1024493
08:00−3юз61580100 0.0 1023561
11:00−1юз71579100 0.0 1022697
14:000зюз61576100 0.0 1021740
17:000зюз61478100 0.0 1021672
20:00−2з51481100 0.0 1022564
29 января, пт
пт2923:00−4з41185100 0.0 1022413
02:00−5зюз3989100 0.0 1023276
05:00−7зюз2390100 0.0 102325
08:00−8зюз2288100 0.0 102321
11:00−7юз2287100 0.0 102229
14:00−5ююв1187100 0.0 102264
17:00−7юв2288100 0.0 102221
20:00−10вюв3392100 0.0 102262